Tracking 35019 objects as of 13-Aug-2026
HD Live streaming from Space Station
objects crossing your sky now

STARLINK-5916

Track STARLINK-5916 now!
10-day predictions
STARLINK-5916 is classified as:


NORAD ID: 55988
Int'l Code: 2023-042C
Launch date: March 24, 2022
Source: United States (US)
Launch site: AIR FORCE EASTERN TEST RANGE (AFETR)
Your satellite tracking list
Your tracking list is empty




NASA's NSSDC Master Catalog

Two Line Element Set (TLE):
1 55988U 23042C   26224.58428943  .00001174  00000-0  52180-4 0  9998
2 55988  43.0028 263.2953 0001960 266.5910  93.4718 15.27574896186662
Source of the keplerian elements: AFSPC